Location: Lafig�re
(44.4503°N, 4.0357°E)
Time: 17:41:02
(UTC+00:00)

S-56A Canister/Altair - Pass Details

Date: 27 January 2021
Orbit: 631 x 2501 km, 38.9° (Epoch: 04 March)

Event Time Altitude Azimuth Distance (km) Brightness Sun altitude
Rises 05:31:27 0° 269° (W) 2,929 - -17.2°
Reaches altitude 10° 05:33:53 10° 256° (WSW) 2,077 - -16.7°
Exits shadow 05:35:35 19° 238° (WSW) 1,618 8.8 -16.4°
Maximum altitude 05:37:47 26° 198° (SSW) 1,417 8.8 -16.1°
Drops below altitude 10° 05:42:32 10° 143° (SE) 2,565 10.9 -15.2°
Sets 05:45:55 0° 132° (SE) 3,786 12.2 -14.6°
